[ hide orbit diagram ]
For accurate long-term ephemerides, please instead use our Horizons system.This orbit viewer was implemented using two-body methods, and hence should not be used for determining accurate long-term trajectories (over several years or decades) or planetary encounter circumstances.
Orbital Elements at Epoch 2459000.5 (2020-May-31.0) TDB
Reference: JPL 15 (heliocentric ecliptic J2000)
Element | Value | Uncertainty (1-sigma) | Units |
e | .05227075116497277 | 7.3562e-08 | |
a | 2.915252848579377 | 4.2812e-08 | au |
q | 2.762870392348306 | 2.204e-07 | au |
i | 12.34982301311663 | 1.5231e-05 | deg |
node | 30.98460988665308 | 3.0464e-05 | deg |
peri | 294.2664407543801 | 0.00014171 | deg |
M | 110.1397647851079 | 0.00013733 | deg |
tp | 2458444.269993954993 (2018-Nov-21.76999395) | 0.00069564 | TDB |
period | 1818.079079494072 4.98 | 4.005e-05 1.097e-07 | d yr |
n | .1980111888753372 | 4.3619e-09 | deg/d |
Q | 3.067635304810447 | 4.505e-08 | au |
|
| | Orbit Determination Parameters
Additional Information
|
[ show covariance matrix ]
Physical Parameter Table
Parameter |
Symbol |
Value |
Units |
Sigma |
Reference |
Notes |
absolute magnitude |
H |
16.6 |
|
n/a |
MPO440764 |
|
|
413415 (2004 TD212) Discovered 2004-Oct-08 by Spacewatch at Kitt Peak |
Reference: | Last Updated: 2014-11-10 |
|
|